This demonstration page uses our WeatherBlox Daily Observations layout. Learn more.

Left ArrowRight Arrow

34.02893, -84.19858

Hourly Observations for August 1, 2021

Temp ( °F °C ) Dew Point ( °F °C ) Humidity (%) Winds ( mph kmh ) Pressure ( in mb ) Visibility ( mi km ) Precip ( " mm )
12:53 am 00:53 Clear 79 26.1 75 23.9 88 88 W 5 7 29.91 1013 9 14 0.00 0.00
1:53 am 01:53 Mostly Cloudy 78 25.6 75 23.9 90 90 W 7 11 29.93 1014 9 14 0.00 0.00
2:44 am 02:44 Cloudy with Nearby Thunderstorms 78 25.6 74 23.3 87 87 W 10 17 29.96 1015 10 16 0.00 0.00
2:51 am 02:51 Cloudy with Thunderstorms 79 26 72 22 79 79 W 18 30 29.96 1015 4 6 0.00 0.00
2:53 am 02:53 Cloudy with Thunderstorms 78 25.6 72 22.2 82 82 W 18 30 29.95 1014 3 4 0.01 0.25
3:16 am 03:16 Cloudy with Thunderstorms 73 22.8 71 21.7 94 94 Calm 29.95 1014 5 8 0.08 2.03
3:33 am 03:33 Mostly Cloudy with Nearby Thunderstorms 71 21.7 70 21.1 96 96 SSW 6 9 29.96 1014 10 16 0.09 2.29
3:53 am 03:53 Mostly Cloudy with Light Rain 71 21.7 69 20.6 94 94 Calm 29.91 1013 10 16 0.09 2.29
4:53 am 04:53 Clear 71 21.7 70 21.1 96 96 SW 5 7 29.91 1013 9 14 0.00 0.00
5:53 am 05:53 Clear 73 22.8 71 21.7 94 94 WSW 8 13 29.89 1012 9 14 0.00 0.00
6:53 am 06:53 Sunny 72 22.2 71 21.7 97 97 WSW 7 11 29.92 1013 7 11 0.00 0.00
7:53 am 07:53 Partly Cloudy 74 23.3 72 22.2 94 94 W 7 11 29.94 1014 7 11 0.00 0.00
8:53 am 08:53 Mostly Sunny 76 24.4 72 22.2 88 88 W 8 13 29.95 1014 8 13 0.00 0.00
9:53 am 09:53 Sunny 79 26.1 72 22.2 79 79 W 6 9 29.93 1014 10 16 0.00 0.00
10:53 am 10:53 Sunny 82 27.8 72 22.2 72 72 WNW 12 19 29.94 1014 10 16 0.00 0.00
11:53 am 11:53 Mostly Cloudy 84 28.9 71 21.7 65 65 NW 14 22 29.96 1015 10 16 0.00 0.00
12:53 pm 12:53 Mostly Sunny 86 30 70 21.1 59 59 NW 14 22 29.93 1014 10 16 0.00 0.00
1:53 pm 13:53 Mostly Sunny 86 30 70 21.1 59 59 W 8 13 29.93 1014 10 16 0.00 0.00
2:53 pm 14:53 Mostly Cloudy 87 30.6 68 20 53 53 WNW 8 13 29.92 1013 10 16 0.00 0.00
3:53 pm 15:53 Sunny 86 30 67 19.4 53 53 W 16 26 29.92 1013 10 16 0.00 0.00
4:53 pm 16:53 Mostly Cloudy 86 30 68 20 55 55 NW 12 19 29.91 1013 10 16 0.00 0.00
5:53 pm 17:53 Sunny 86 30 69 20.6 57 57 WNW 12 19 29.88 1012 10 16 0.00 0.00
6:53 pm 18:53 Sunny 85 29.4 69 20.6 59 59 W 12 19 29.89 1012 10 16 0.00 0.00
7:37 pm 19:37 Sunny with Nearby Thunderstorms 84 28.9 69 20.6 61 61 WNW 8 13 29.89 1012 10 16 0.00 0.00
7:53 pm 19:53 Sunny with Thunderstorms 83 28.3 69 20.6 63 63 WNW 7 11 29.90 1013 10 16 0.00 0.00
8:32 pm 20:32 Cloudy with Heavy Rain 77 25 71 21.7 82 82 NW 8 13 29.94 1014 3 4 0.05 1.27
8:53 pm 20:53 Mostly Cloudy 76 24.4 72 22.2 88 88 WNW 6 9 29.93 1013 10 16 0.07 1.78
9:53 pm 21:53 Mostly Clear 76 24.4 73 22.8 91 91 W 5 7 29.95 1014 10 16 0.00 0.00
10:53 pm 22:53 Clear 75 23.9 73 22.8 94 94 WNW 3 6 29.96 1014 10 16 0.00 0.00
11:53 pm 23:53 Clear 74 23.3 72 22.2 94 94 WNW 5 7 29.96 1014 10 16 0.00 0.00

Powered by AerisWeather